DW9249 Weather Reports


Display with metric or nautical units.
time (UTC)temp
F
wind
direction
speed
MPH
gust
MPH
rain 1hr
in
rain 24hr
in
rain mn
in
humidity
%
barometer
mb
20260510174422 73 273 2.0 7.0 0.00 0.09 0.00 59 1004.2
20260510173914 73 227 1.0 7.0 0.00 0.09 0.00 60 1004.1
20260510173417 73 206 2.0 9.0 0.00 0.09 0.00 60 1004.1
20260510172911 73 229 3.0 9.0 0.00 0.09 0.00 59 1003.9
20260510172411 74 226 3.0 9.0 0.00 0.09 0.00 57 1003.9
20260510171910 74 220 2.0 9.0 0.00 0.09 0.00 57 1003.9
20260510171408 74 349 1.0 6.0 0.00 0.09 0.00 60 1003.9
20260510170241 73 268 1.0 0.0 0.00 0.09 0.00 63 1003.9
20260510165729 73 265 1.0 8.0 0.00 0.09 0.00 64 1004.1
20260510165225 73 244 1.0 8.0 0.00 0.09 0.00 62 1004.1
20260510164724 73 330 1.0 5.0 0.00 0.09 0.00 65 1004.1
20260510164222 72 212 0.0 0.0 0.00 0.09 0.00 64 1004.1
20260510162440 70 221 1.0 7.0 0.00 0.09 0.00 66 1004.3
20260510161931 70 191 1.0 7.0 0.00 0.09 0.00 65 1004.3
20260510160746 70 259 0.0 6.0 0.00 0.09 0.00 69 1004.4
20260510160227 70 242 0.0 6.0 0.00 0.09 0.00 68 1004.3
20260510155728 70 22 0.0 3.0 0.00 0.09 0.00 70 1004.4
20260510155228 69 110 0.0 2.0 0.00 0.09 0.00 71 1004.5
20260510154725 69 277 0.0 0.0 0.00 0.09 0.00 72 1004.5
20260510154207 68 339 0.0 2.0 0.00 0.09 0.00 73 1004.6
20260510153659 67 227 0.0 2.0 0.00 0.09 0.00 76 1004.5
20260510153204 67 226 0.0 0.0 0.00 0.09 0.00 77 1004.6
20260510152701 66 226 0.0 0.0 0.00 0.09 0.00 78 1004.8
20260510152201 66 226 0.0 0.0 0.00 0.09 0.00 78 1004.8
20260510151641 65 226 0.0 0.0 0.00 0.09 0.00 80 1004.7
20260510151138 65 226 0.0 3.0 0.00 0.09 0.00 79 1004.7
20260510145959 63 226 0.0 0.0 0.00 0.09 0.00 87 1004.6
20260510145443 62 226 0.0 0.0 0.00 0.09 0.00 88 1004.6
20260510144952 61 226 0.0 0.0 0.00 0.09 0.00 89 1004.6
20260510144452 61 226 0.0 0.0 0.00 0.09 0.00 90 1004.7
20260510143935 60 226 0.0 0.0 0.00 0.09 0.00 90 1004.8
20260510143424 59 226 0.0 0.0 0.00 0.09 0.00 91 1004.8
20260510142908 59 224 0.0 0.0 0.00 0.09 0.00 92 1004.8
20260510142412 59 224 0.0 1.0 0.00 0.09 0.00 92 1004.7
20260510141921 59 224 0.0 0.0 0.00 0.09 0.00 92 1004.5
20260510141427 58 224 0.0 0.0 0.00 0.09 0.00 92 1004.6
20260510140935 58 224 0.0 0.0 0.00 0.09 0.00 93 1004.5
20260510140429 58 224 0.0 0.0 0.00 0.09 0.00 94 1004.5
20260510135937 57 210 0.0 0.0 0.00 0.09 0.00 94 1004.6
20260510135431 57 196 0.0 0.0 0.00 0.09 0.00 95 1004.5
20260510134255 57 196 0.0 0.0 0.00 0.09 0.00 95 1004.5
20260510133754 56 196 0.0 0.0 0.00 0.09 0.00 95 1004.5
20260510133243 56 196 0.0 0.0 0.00 0.09 0.00 95 1004.6
20260510132753 56 196 0.0 0.0 0.00 0.09 0.00 95 1004.7
20260510131651 56 193 0.0 0.0 0.00 0.09 0.00 95 1004.7
20260510131147 56 193 0.0 0.0 0.00 0.09 0.00 95 1004.7
20260510130652 56 93 0.0 0.0 0.00 0.09 0.00 95 1004.7
20260510130135 55 93 0.0 0.0 0.00 0.09 0.00 95 1004.5
20260510125637 55 93 0.0 0.0 0.00 0.09 0.00 95 1004.3
20260510123859 55 87 0.0 0.0 0.00 0.09 0.00 95 1004.0
20260510123348 55 87 0.0 0.0 0.00 0.09 0.00 95 1004.0
20260510122851 54 87 0.0 0.0 0.00 0.09 0.00 95 1004.0
20260510122349 54 87 0.0 0.0 0.00 0.09 0.00 95 1004.1
20260510121857 54 91 0.0 0.0 0.00 0.09 0.00 95 1004.1
20260510121349 54 91 0.0 0.0 0.00 0.09 0.00 95 1003.9
20260510120844 53 91 0.0 0.0 0.00 0.09 0.00 95 1003.8
20260510120324 53 91 0.0 0.0 0.00 0.09 0.00 95 1003.8
20260510115810 53 91 0.0 0.0 0.00 0.09 0.00 95 1003.7
20260510115306 53 91 0.0 0.0 0.00 0.09 0.00 95 1003.8
20260510114802 53 91 0.0 0.0 0.00 0.09 0.00 95 1003.8
20260510113616 53 91 0.0 0.0 0.00 0.09 0.00 95 1003.9
20260510113109 53 91 0.0 0.0 0.00 0.09 0.00 95 1003.8
20260510111957 53 91 0.0 0.0 0.00 0.09 0.00 95 1003.8
20260510111507 53 91 0.0 0.0 0.00 0.09 0.00 95 1003.7
20260510111009 53 91 0.0 0.0 0.00 0.09 0.00 95 1003.6
20260510110500 53 91 0.0 0.0 0.00 0.09 0.00 95 1003.4
20260510110001 53 91 0.0 0.0 0.00 0.09 0.00 95 1003.2
20260510105509 53 91 0.0 0.0 0.00 0.09 0.00 95 1003.2
20260510104951 53 92 0.0 0.0 0.00 0.09 0.00 95 1003.2
20260510104453 53 92 0.0 0.0 0.00 0.09 0.00 95 1003.0
20260510103301 52 92 0.0 0.0 0.00 0.09 0.00 95 1003.1
20260510102800 52 92 0.0 0.0 0.00 0.09 0.00 95 1003.3
20260510101648 52 92 0.0 0.0 0.00 0.09 0.00 95 1003.2
20260510101130 52 92 0.0 0.0 0.00 0.09 0.00 95 1003.1
20260510100619 52 92 0.0 0.0 0.00 0.09 0.00 95 1003.3
20260510100114 52 92 0.0 0.0 0.00 0.09 0.00 95 1003.3
20260510095622 52 92 0.0 0.0 0.00 0.09 0.00 95 1003.1
20260510095110 52 92 0.0 0.0 0.00 0.09 0.00 95 1003.2
20260510094611 52 92 0.0 0.0 0.00 0.09 0.00 95 1003.2
20260510093448 51 92 0.0 0.0 0.00 0.09 0.00 95 1003.2
20260510092941 51 92 0.0 0.0 0.00 0.09 0.00 95 1003.3
20260510092439 51 92 0.0 0.0 0.00 0.09 0.00 95 1003.2
20260510091930 51 92 0.0 0.0 0.00 0.09 0.00 95 1003.4
20260510091430 51 92 0.0 0.0 0.00 0.09 0.00 95 1003.4
20260510090928 51 92 0.0 0.0 0.00 0.09 0.00 94 1003.5
20260510090423 51 92 0.0 0.0 0.00 0.09 0.00 95 1003.3
20260510085313 51 92 0.0 0.0 0.00 0.09 0.00 94 1003.8
20260510084754 51 92 0.0 0.0 0.00 0.09 0.00 95 1003.6
20260510084249 51 92 0.0 0.0 0.00 0.09 0.00 94 1003.6
20260510083731 51 92 0.0 0.0 0.00 0.09 0.00 94 1003.8
20260510082603 51 92 0.0 0.0 0.00 0.09 0.00 94 1003.6
20260510082106 51 92 0.0 1.0 0.00 0.09 0.00 94 1003.3
20260510081613 51 92 0.0 0.0 0.00 0.09 0.00 94 1003.5
20260510081054 51 92 0.0 0.0 0.00 0.09 0.00 94 1002.9
20260510080548 51 92 0.0 0.0 0.00 0.09 0.00 94 1002.9
20260510080034 51 92 0.0 0.0 0.00 0.09 0.00 94 1002.8
20260510075522 51 92 0.0 0.0 0.00 0.09 0.00 94 1002.7
20260510074406 51 92 0.0 0.0 0.00 0.09 0.00 94 1002.7
20260510073902 51 92 0.0 0.0 0.00 0.09 0.00 94 1002.7
20260510073346 51 92 0.0 0.0 0.00 0.09 0.00 94 1002.6
20260510072838 51 92 0.0 0.0 0.00 0.09 0.00 94 1002.6
20260510072321 51 92 0.0 0.0 0.00 0.09 0.00 94 1002.6
20260510071823 51 92 0.0 0.0 0.00 0.09 0.00 94 1002.6
20260510071331 51 92 0.0 0.0 0.00 0.09 0.00 94 1002.6
20260510070814 51 92 0.0 0.0 0.00 0.09 0.00 94 1002.7
20260510065703 51 92 0.0 0.0 0.00 0.09 0.00 94 1002.7
20260510065200 51 92 0.0 0.0 0.00 0.09 0.00 93 1002.8
20260510064708 51 92 0.0 0.0 0.00 0.09 0.00 93 1002.8
20260510064152 51 92 0.0 0.0 0.00 0.09 0.00 93 1002.7
20260510063633 51 92 0.0 0.0 0.00 0.09 0.00 93 1002.8
20260510063141 52 92 0.0 0.0 0.00 0.09 0.00 94 1002.7
20260510062634 52 92 0.0 0.0 0.00 0.09 0.00 94 1002.6
20260510062126 52 92 0.0 0.0 0.00 0.09 0.00 94 1002.5
20260510061631 52 92 0.0 0.0 0.00 0.09 0.00 94 1002.5
20260510061129 52 92 0.0 0.0 0.00 0.09 0.00 94 1002.4
20260510060632 52 92 0.0 0.0 0.00 0.09 0.00 94 1002.4
20260510060117 51 92 0.0 0.0 0.00 0.09 0.00 94 1002.4
20260510055627 51 92 0.0 0.0 0.00 0.09 0.00 94 1002.4
20260510055119 51 92 0.0 0.0 0.00 0.09 0.00 93 1002.5
20260510054603 51 92 0.0 0.0 0.00 0.09 0.00 93 1002.5
20260510054054 51 92 0.0 0.0 0.00 0.09 0.00 93 1002.5
20260510052319 51 92 0.0 0.0 0.00 0.09 0.00 93 1002.5
20260510051821 51 92 0.0 0.0 0.00 0.09 0.00 93 1002.6
20260510050049 51 92 0.0 0.0 0.00 0.09 0.00 93 1002.7
20260510044934 51 92 0.0 0.0 0.00 0.09 0.00 93 1002.7
20260510044417 51 92 0.0 0.0 0.00 0.09 0.00 93 1002.7
20260510043906 51 92 0.0 0.0 0.00 0.09 0.00 93 1002.8
20260510043351 51 92 0.0 0.0 0.00 0.09 0.00 93 1002.8
20260510042834 51 92 0.0 0.0 0.00 0.09 0.00 93 1002.9
20260510041714 50 92 0.0 0.0 0.00 0.09 0.00 93 1002.8
20260510041158 50 92 0.0 0.0 0.00 0.09 0.00 93 1002.9
20260510035433 50 92 0.0 0.0 0.00 0.09 0.10 93 1002.7
20260510034311 50 92 0.0 0.0 0.00 0.09 0.09 92 1002.7
20260510033129 50 92 0.0 0.0 0.00 0.09 0.09 92 1002.5
20260510032637 50 92 0.0 0.0 0.00 0.09 0.09 92 1002.5
20260510032135 50 92 0.0 0.0 0.00 0.09 0.09 92 1002.5
20260510031646 50 92 0.0 0.0 0.00 0.09 0.09 91 1002.4
20260510031152 50 92 0.0 0.0 0.00 0.09 0.09 92 1002.4
20260510030638 50 92 0.0 0.0 0.00 0.09 0.09 91 1002.4
20260510030135 50 92 0.0 0.0 0.00 0.09 0.09 91 1002.3
20260510025625 50 92 0.0 0.0 0.00 0.09 0.09 91 1002.3
20260510025135 50 92 0.0 0.0 0.00 0.09 0.09 91 1002.3
20260510024629 50 92 0.0 0.0 0.00 0.09 0.09 90 1002.3
20260510024124 50 92 0.0 0.0 0.00 0.09 0.09 90 1002.3
20260510022944 50 92 0.0 0.0 0.00 0.09 0.09 90 1002.3
20260510022442 50 92 0.0 0.0 0.00 0.09 0.09 90 1002.4
20260510021943 50 92 0.0 0.0 0.00 0.09 0.09 90 1002.3
20260510021437 51 92 0.0 0.0 0.00 0.09 0.09 89 1002.3
20260510020942 51 92 0.0 0.0 0.00 0.09 0.09 89 1002.1
20260510015806 51 92 0.0 0.0 0.00 0.09 0.09 89 1002.1
20260510015301 52 92 0.0 0.0 0.00 0.09 0.09 89 1002.2
20260510014123 52 92 0.0 0.0 0.00 0.09 0.09 89 1002.2
20260510012338 53 92 0.0 0.0 0.00 0.09 0.09 88 1002.1
20260510011847 53 92 0.0 0.0 0.00 0.09 0.09 88 1002.1
20260510011356 53 92 0.0 0.0 0.00 0.09 0.09 88 1002.2
20260510010217 54 92 0.0 0.0 0.00 0.09 0.09 88 1002.0
20260510005722 54 92 0.0 0.0 0.00 0.09 0.09 88 1001.9
20260510005215 54 92 0.0 0.0 0.00 0.09 0.09 88 1001.7
20260510004024 55 92 0.0 0.0 0.00 0.09 0.09 88 1001.6
20260510003509 55 92 0.0 0.0 0.00 0.09 0.09 88 1001.6
20260510002959 55 92 0.0 0.0 0.00 0.09 0.09 88 1001.6
20260510002446 55 92 0.0 0.0 0.00 0.09 0.09 88 1001.6
20260510001944 56 92 0.0 0.0 0.00 0.09 0.09 88 1001.5
20260510001428 56 92 0.0 0.0 0.00 0.09 0.09 89 1001.6
20260510000909 56 92 0.0 0.0 0.00 0.09 0.09 88 1001.6
20260510000411 56 92 0.0 0.0 0.00 0.09 0.09 89 1001.6
20260509235911 56 92 0.0 0.0 0.00 0.09 0.09 89 1001.6
20260509235413 56 92 0.0 0.0 0.00 0.09 0.09 89 1001.6
20260509234902 57 92 0.0 0.0 0.00 0.09 0.09 89 1001.6
20260509234343 57 92 0.0 0.0 0.00 0.09 0.09 89 1001.5
20260509233838 57 92 0.0 0.0 0.00 0.09 0.09 89 1001.4
20260509232729 57 92 0.0 0.0 0.00 0.09 0.09 89 1001.3
20260509232220 57 92 0.0 0.0 0.00 0.09 0.09 89 1001.3
20260509231714 57 282 0.0 0.0 0.00 0.09 0.09 89 1001.3
20260509231156 57 282 0.0 0.0 0.00 0.09 0.09 90 1001.2
20260509230701 57 282 0.0 0.0 0.00 0.09 0.09 89 1001.3
20260509230155 57 282 0.0 0.0 0.00 0.09 0.09 89 1001.3
20260509225053 57 72 0.0 0.0 0.00 0.09 0.09 89 1001.5
20260509224539 57 72 0.0 0.0 0.00 0.09 0.09 89 1001.6
20260509223430 58 72 0.0 0.0 0.04 0.09 0.09 90 1001.5
20260509222932 58 72 0.0 0.0 0.04 0.09 0.09 91 1001.5
20260509222414 57 72 0.0 0.0 0.00 0.08 0.08 91 1001.5
20260509221858 57 72 0.0 0.0 0.00 0.08 0.08 91 1001.7
20260509221349 57 72 0.0 0.0 0.00 0.08 0.08 90 1001.8
20260509215003 57 72 0.0 0.0 0.06 0.06 0.06 90 1001.9
20260509214504 57 72 0.0 0.0 0.05 0.06 0.06 90 1001.9
20260509214006 57 72 0.0 0.0 0.05 0.04 0.05 89 1001.9
20260509213459 57 72 0.0 0.0 0.08 0.04 0.05 89 1001.9
20260509212958 57 323 0.0 0.0 0.09 0.04 0.05 88 1001.9
20260509211827 57 323 0.0 0.0 0.05 0.03 0.03 86 1002.1
20260509211324 58 323 0.0 0.0 0.06 0.03 0.03 86 1001.8
20260509210807 58 323 0.0 0.0 0.06 0.03 0.03 85 1001.9
20260509210259 58 323 0.0 0.0 0.00 0.02 0.02 85 1001.7
20260509205126 58 323 0.0 2.0 0.00 0.01 0.01 83 1002.0
20260509204632 58 323 0.0 0.0 0.00 0.01 0.01 83 1001.8
20260509204140 58 323 0.0 0.0 0.00 0.01 0.01 83 1001.7
20260509203639 58 323 0.0 0.0 0.00 0.01 0.01 83 1001.7
20260509203140 58 323 0.0 0.0 0.00 0.01 0.01 83 1001.5
20260509202624 58 323 0.0 0.0 0.00 0.01 0.01 83 1001.5
20260509202122 58 323 0.0 0.0 0.00 0.01 0.01 83 1001.8
20260509201614 58 339 0.0 0.0 0.00 0.01 0.01 83 1001.8
20260509201104 58 319 0.0 0.0 0.00 0.01 0.01 83 1001.8
20260509200610 58 342 0.0 2.0 0.00 0.01 0.01 83 1001.8
20260509200100 58 355 0.0 1.0 0.00 0.01 0.01 83 1001.9
20260509195543 58 355 0.0 0.0 0.00 0.01 0.01 83 1002.0
20260509195053 58 218 0.0 0.0 0.00 0.01 0.01 82 1002.1
20260509194538 58 217 0.0 0.0 0.00 0.01 0.01 82 1002.2
20260509194035 59 218 0.0 6.0 0.00 0.01 0.01 81 1002.3
20260509193543 59 209 0.0 6.0 0.00 0.01 0.01 80 1002.5
20260509193028 59 198 0.0 0.0 0.00 0.01 0.01 80 1002.5
20260509192510 59 350 1.0 7.0 0.00 0.01 0.01 79 1002.5
20260509192013 59 204 1.0 6.0 0.00 0.01 0.01 79 1002.6
20260509191455 60 197 0.0 6.0 0.00 0.01 0.01 77 1002.5
20260509190959 60 167 0.0 5.0 0.00 0.01 0.01 77 1002.5
20260509190501 60 337 0.0 2.0 0.00 0.01 0.01 77 1002.4
20260509185946 60 344 0.0 1.0 0.00 0.01 0.01 76 1002.3
20260509185455 60 285 0.0 0.0 0.00 0.01 0.01 76 1002.1
20260509184940 60 222 0.0 5.0 0.00 0.01 0.01 76 1002.1
20260509184441 60 355 0.0 7.0 0.00 0.01 0.01 76 1002.2
20260509183946 60 202 0.0 0.0 0.00 0.01 0.01 76 1002.4
20260509183437 60 202 0.0 5.0 0.00 0.01 0.01 75 1002.4
20260509182920 60 210 0.0 2.0 0.00 0.01 0.01 75 1002.4
20260509182424 60 210 1.0 8.0 0.00 0.01 0.01 75 1002.3
20260509181908 60 190 1.0 5.0 0.00 0.01 0.01 74 1002.5
20260509181411 61 203 0.0 5.0 0.00 0.01 0.01 75 1002.2
20260509180856 61 5 0.0 0.0 0.00 0.01 0.01 76 1002.1
20260509180352 61 202 0.0 6.0 0.00 0.01 0.01 75 1002.4
20260509175855 62 205 1.0 3.0 0.00 0.00 0.00 73 1002.5